Zurück zum Katalog

STARLINK-32076

AktivKommunikationVLEO
NORAD 60350·PAYLOAD·🇺🇸 United States

Gestartet Aug 2, 2024 von Cape Canaveral Space Force Station

Loading…

Nächste Überflüge (nächste 24 Stunden)

TLE

AktuellSource: CelesTrak SupGP

Epoche: Sep 14, 2026, 14:40 UTC

1 60350C 24136X   26257.61159722 -.00005967  00000+0 -19179-3 0  2570
2 60350  53.1564 276.5721 0001332  85.8321 195.9216 15.31721734    14

Verfolge STARLINK-32076 in Echtzeit mit AllMySat

Download on the App Store